Location: Bear Valley Community Church - Hurst
(32.8460°N, 97.1828°W)
Time: 19:20:09
(UTC+00:00)

Cosmos 1328 Rocket - Pass Details

Date: 09 July 2022
Orbit: 600 x 627 km, 82.5° (Epoch: 17 August)

Event Time Altitude Azimuth Distance (km) Brightness Sun altitude
Rises 08:20:32 0° 350° (N) 2,889 7.7 -29.2°
Reaches altitude 10° 08:22:47 10° 349° (NNW) 1,976 6.7 -29.0°
Enters shadow 08:25:15 33° 341° (NNW) 1,034 4.9 -28.8°
